Location: Newark
(43.4306°N, 0.3089°E)
Time: 19:22:15
(UTC+00:00)

Vanguard 3 - Pass Details

Date: 30 August 2019
Orbit: 508 x 3262 km, 33.3° (Epoch: 18 October)

Event Time Altitude Azimuth Distance (km) Brightness Sun altitude
Rises 10:51:08 0° 188° (S) 7,142 12.4 52.5°
Reaches altitude 10° 11:00:28 10° 166° (SSE) 5,763 12.3 53.3°
Maximum altitude 11:06:37 13° 145° (SE) 5,126 12.1 53.7°
Drops below altitude 10° 11:12:00 10° 123° (ESE) 4,940 11.7 54.1°
Sets 11:18:21 0° 98° (E) 5,321 11.5 54.4°
